Overview Statistics Trail Chart Weather Telemetry Raw packets
 

This is the latest recevied weather packets stored in our database for station/object K2CAT. If no packets are shown the sender has not sent any weather packets the latest 10 day(s).

<< 91 92 93 94 95 96 97 >>
Time Temp. Humidity Pressure Rain* Wind** Luminosity Snow
1777024098 11.11° C 43% 1010.3 hPa 0 mm - 0 W/m² -
1777023799 11.11° C 44% 1010.4 hPa 0 mm - 0 W/m² -
1777023496 11.11° C 42% 1010.4 hPa 0 mm - 0 W/m² -
1777023192 11.67° C 43% 1010.4 hPa 0 mm - 0 W/m² -
1777022888 11.67° C 44% 1010 hPa 0 mm - 0 W/m² -
1777022584 11.67° C 45% 1010.2 hPa 0 mm - 0 W/m² -
1777022280 11.67° C 46% 1010.2 hPa 0 mm - 0 W/m² -
1777021976 11.67° C 45% 1010 hPa 0 mm - 0 W/m² -
1777021673 12.22° C 48% 1010.1 hPa 0 mm - 0 W/m² -
1777021370 12.22° C 46% 1009.9 hPa 0 mm - 0 W/m² -
1777021066 12.22° C 49% 1010 hPa 0 mm - 0 W/m² -
1777020762 11.67° C 61% 1009.9 hPa 0 mm - 0 W/m² -
1777020457 11.67° C 68% 1009.8 hPa 0 mm - 0 W/m² -
1777020153 11.67° C 66% 1009.6 hPa 0 mm - 0 W/m² -
1777019850 11.67° C 67% 1009.3 hPa 0 mm - 0 W/m² -
1777019546 12.22° C 65% 1009.3 hPa 0 mm - 0 W/m² -
1777019243 12.22° C 61% 1009.3 hPa 0 mm - 0 W/m² -
1777018940 12.22° C 65% 1009.3 hPa 0 mm - 0 W/m² -
1777018637 12.22° C 62% 1009.3 hPa 0 mm - 0 W/m² -
1777018333 12.22° C 62% 1009.3 hPa 0 mm - 0 W/m² -
1777018031 12.22° C 61% 1009.1 hPa 0 mm - 0 W/m² -
1777017727 12.22° C 61% 1009.2 hPa 0 mm - 0 W/m² -
1777017423 12.22° C 62% 1009.2 hPa 0 mm - 0 W/m² -
1777017119 12.22° C 62% 1009.3 hPa 0 mm - 0 W/m² -
1777016816 12.22° C 63% 1009.4 hPa 0 mm - 0 W/m² -

* Rain latest hour (hover to see other rain measurements)
** Current wind speed in m/s (hover to see current wind gust speed)